www.pogodaiklimat.ru
ПОГОДА в Файстриц-об-Блайбурге
Время
(UTC), дата
16 7.11
17 7.11
18 7.11
19 7.11
20 7.11
21 7.11
22 7.11
23 7.11
00 8.11
01 8.11
02 8.11
03 8.11
04 8.11
05 8.11
06 8.11
07 8.11
08 8.11
09 8.11
10 8.11
11 8.11
12 8.11
13 8.11
14 8.11
15 8.11
16 8.11
17 8.11
18 8.11
19 8.11
20 8.11
21 8.11
22 8.11
23 8.11
00 9.11
01 9.11
02 9.11
03 9.11
04 9.11
05 9.11
06 9.11
07 9.11
08 9.11
09 9.11
10 9.11
11 9.11
12 9.11
13 9.11
14 9.11
15 9.11
16 9.11
17 9.11
18 9.11
19 9.11
20 9.11
21 9.11
22 9.11
23 9.11
00 10.11
01 10.11
02 10.11
03 10.11
04 10.11
05 10.11
06 10.11
07 10.11
08 10.11
09 10.11
10 10.11
11 10.11
12 10.11
13 10.11
14 10.11
15 10.11
16 10.11
17 10.11
18 10.11
20 10.11
21 10.11
22 10.11
23 10.11
00 11.11
01 11.11
02 11.11
03 11.11
04 11.11
05 11.11
06 11.11
07 11.11
08 11.11
09 11.11
10 11.11
11 11.11
12 11.11
13 11.11
14 11.11
15 11.11
16 11.11
17 11.11
18 11.11
19 11.11
20 11.11
21 11.11
22 11.11
23 11.11
00 12.11
01 12.11
02 12.11
03 12.11
04 12.11
05 12.11
06 12.11
07 12.11
08 12.11
09 12.11
10 12.11
11 12.11
12 12.11
13 12.11
14 12.11
15 12.11
16 12.11
17 12.11
18 12.11
19 12.11
20 12.11
21 12.11
22 12.11
23 12.11
00 13.11
01 13.11
02 13.11
03 13.11
04 13.11
05 13.11
06 13.11
07 13.11
08 13.11
09 13.11
10 13.11
11 13.11
12 13.11
13 13.11
14 13.11
15 13.11
16 13.11
17 13.11
18 13.11
19 13.11
20 13.11
21 13.11
00 14.11
01 14.11
02 14.11
03 14.11
04 14.11
05 14.11
06 14.11
07 14.11
08 14.11
09 14.11
10 14.11
11 14.11
12 14.11
13 14.11
14 14.11
15 14.11
16 14.11
Ветер
(напр.,м/с)
Видим. Явления Облачность Т
(С)
Тd
(С)
f
(%)
Тe
(С)
Тes
(С)
Комфортность P
(гПа)
Po
(гПа)
Тmin
(С)
Tmax
(С)
R
(мм)
R24
(мм)
S
(см)
Ю 2 н/о н/о +5.4 +4.2 92 +3 +3 по сезону 1008.5 945.5
штиль 0 н/о н/о +4.2 +3.4 95 +3 +3 по сезону 1009.2 945.9
Ю 1 40 км 1/1 1500 м
[Sc Ac lent]
+4.6 +4.1 97 +3 +3 по сезону 1009.6 946.3 +3.6 +10.1 0.0
ЮВ 2 н/о н/о +3.9 +3.6 98 +1 +1 по сезону 1009.7 946.3
ЮВ 1 н/о н/о +3.7 +3.2 97 +2 +2 по сезону 1010.1 946.6
ЮЗ 1 н/о н/о +3.0 +2.7 98 +1 +1 по сезону 1010.5 946.8
Ю 1 н/о н/о +2.2 +1.8 97 0 0 по сезону 1011.2 947.3
штиль 0 н/о н/о +1.6 +1.4 99 0 0 по сезону 1011.2 947.1
З 1 н/о н/о +1.1 +1.0 99 -1 -1 по сезону 1010.9 946.7
Ю 1 н/о н/о +2.4 +2.3 99 +1 +1 по сезону 1010.4 946.6
ЮВ 1 н/о н/о +2.8 +2.7 99 +1 +1 по сезону 1010.2 946.5
В 1 н/о н/о +2.8 +2.6 99 +1 +1 по сезону 1010.1 946.4
В 1 н/о н/о +2.9 +2.8 99 +1 +1 по сезону 1009.9 946.2
В 1 н/о н/о +2.9 +2.8 99 +1 +1 по сезону 1009.6 945.9
штиль 0 200 м туман ?/? +3.1 +3.1 100 +2 +2 по сезону 1009.3 945.7 +0.7 +4.5
В 1 н/о н/о +3.6 +3.5 99 +2 +2 по сезону 1009.3 945.8
В 1 н/о н/о +4.0 +3.9 99 +2 +2 по сезону 1009.0 945.6
С 1 н/о н/о +5.1 +4.8 98 +4 +4 по сезону 1008.5 945.4
С 1 н/о н/о +6.9 +5.8 93 +6 +6 тепло 1007.0 944.4
СЗ 1 н/о н/о +8.7 +6.7 87 +8 +8 тепло 1005.7 943.6
СЗ 3 50 км {туман} 3/1 1500 м
[Sc Ac lent]
+7.7 +5.6 87 +5 +7 тепло 1005.5 943.2
З 2 н/о н/о +7.6 +5.6 87 +5 +5 тепло 1005.0 942.7
ЮЗ 2 н/о н/о +7.9 +5.6 85 +6 +6 тепло 1005.1 942.9
З 1 н/о н/о +7.4 +5.5 88 +6 +6 тепло 1004.7 942.4
З 1 н/о н/о +7.1 +6.0 93 +6 +6 тепло 1005.0 942.6
штиль 0 н/о осадки н/о +7.1 +6.0 93 +6 +6 тепло 1005.9 943.4 0.0
З 2 10 км слаб. дождь 10/9 300 м
[Frnb As trans]
+6.9 +5.7 92 +5 +5 тепло 1006.7 944.1 +2.9 +10.4 0.3
З 2 н/о осадки н/о +6.7 +5.7 93 +4 +4 по сезону 1007.0 944.4 1
ЮВ 2 н/о в посл. час осадки н/о +6.4 +5.9 97 +4 +4 по сезону 1007.6 944.9 0.9
В 1 н/о осадки н/о +6.3 +5.9 97 +5 +5 тепло 1008.0 945.2 2
З 1 н/о осадки н/о +6.1 +5.8 98 +5 +5 тепло 1007.7 944.9 0.1
В 2 н/о н/о +6.1 +5.8 98 +3 +3 по сезону 1007.6 944.8 0.0
З 1 н/о осадки {ливн. осадки} н/о +6.0 +5.8 99 +5 +5 тепло 1007.4 944.6 2
штиль 0 н/о осадки н/о +5.7 +5.3 97 +5 +5 тепло 1006.9 944.1 0.1
СЗ 1 н/о осадки н/о +5.5 +5.1 97 +4 +4 по сезону 1007.1 944.2 0.2
СЗ 1 н/о осадки {ливн. осадки} н/о +5.4 +5.2 99 +4 +4 по сезону 1007.5 944.6 1
СЗ 1 н/о осадки н/о +5.1 +4.7 97 +4 +4 по сезону 1007.4 944.4 2
штиль 0 н/о осадки н/о +4.9 +4.5 97 +4 +4 по сезону 1007.6 944.5 2
З 1 н/о в посл. час дождь {морось} н/о +4.8 +4.7 99 +3 +3 по сезону 1007.7 944.6 +4.8 +6.9 7
З 2 н/о осадки н/о +4.8 +4.4 97 +2 +2 по сезону 1008.4 945.3 0.0
С 1 н/о в посл. час осадки н/о +5.2 +4.6 96 +4 +4 по сезону 1008.9 945.8 0.1
З 1 н/о {осадки} н/о +5.7 +5.1 96 +4 +4 по сезону 1009.2 946.2 0.1
СЗ 2 н/о н/о +6.4 +5.5 94 +4 +4 по сезону 1009.5 946.7
СЗ 1 н/о осадки н/о +6.3 +5.3 93 +5 +5 тепло 1009.6 946.7 0.1
З 2 2000 м в посл. час ливневой дождь {морось} 10/9 50 м
[Frnb As trans]
+7.1 +6.2 94 +5 +5 тепло 1009.7 947.0 0.2
З 4 н/о н/о +7.1 +5.4 89 +3 +3 по сезону 1010.0 947.3 0.0
З 3 н/о в посл. час осадки н/о +6.4 +4.8 89 +3 +3 по сезону 1010.8 947.9 0.2
СЗ 2 н/о {осадки} н/о +6.6 +3.8 82 +4 +4 по сезону 1011.3 948.4 0.2
ЮЗ 1 н/о осадки н/о +5.9 +4.8 93 +5 +5 тепло 1011.8 948.7 0.0
З 1 н/о н/о +5.5 +4.6 94 +4 +4 по сезону 1012.4 949.2 0.0
штиль 0 10 км {дождь, морось} 9/9 300 м
[Frnb]
+5.1 +4.7 97 +4 +4 по сезону 1013.1 949.7 +4.7 +7.4 0.4
Ю 1 н/о н/о +5.1 +4.6 97 +4 +4 по сезону 1013.0 949.6
Ю 1 н/о н/о +4.6 +4.1 97 +3 +3 по сезону 1012.8 949.3
ЮВ 1 н/о н/о +4.6 +4.2 97 +3 +3 по сезону 1012.5 949.1
ЮЗ 1 н/о н/о +4.5 +4.1 97 +3 +3 по сезону 1012.4 948.9
З 1 н/о н/о +4.3 +4.1 99 +3 +3 по сезону 1012.0 948.5
В 1 н/о н/о +4.6 +4.3 98 +3 +3 по сезону 1012.2 948.8
З 1 н/о н/о +4.7 +4.4 98 +3 +3 по сезону 1012.0 948.6 0.0
З 2 н/о осадки н/о +4.6 +4.2 97 +2 +2 по сезону 1011.8 948.4 0.1
З 2 н/о ливневой дождь {осадки} н/о +4.5 +4.2 98 +2 +2 по сезону 1011.3 947.9 0.3
З 1 н/о в посл. час осадки н/о +4.4 +4.0 97 +3 +3 по сезону 1011.1 947.7 0.1
З 1 н/о осадки н/о +4.4 +3.7 95 +3 +3 по сезону 1010.9 947.5 0.0
СЗ 1 н/о н/о +4.4 +3.8 96 +3 +3 по сезону 1010.9 947.5 +3.9 +5.2 0.4
СЗ 2 н/о н/о +4.6 +3.7 94 +2 +2 по сезону 1011.0 947.6
штиль 0 н/о н/о +4.8 +4.0 95 +4 +4 по сезону 1011.0 947.7
С 1 н/о в посл. час осадки н/о +5.2 +4.5 95 +4 +4 по сезону 1011.2 948.0 0.1
С 1 н/о н/о +5.7 +3.3 85 +5 +5 тепло 1011.6 948.4
З 1 н/о н/о +6.5 +3.4 81 +6 +6 тепло 1011.4 948.4
З 2 10 км 9/9 300 м
[St]
+6.7 +3.8 82 +4 +5 по сезону 1011.5 948.6
СЗ 2 н/о н/о +7.2 +2.7 73 +5 +5 тепло 1011.6 948.8
СЗ 1 н/о н/о +7.3 +3.3 76 +7 +7 тепло 1011.7 948.9
СЗ 1 н/о н/о +6.9 +3.0 76 +6 +6 тепло 1012.1 949.2
ЮЗ 1 н/о н/о +4.2 +3.0 92 +3 +3 по сезону 1013.6 950.0
штиль 0 н/о н/о +2.3 +1.4 94 +1 +1 по сезону 1014.8 950.7
ЮВ 1 50 км ясно +1.4 +0.8 96 -1 -1 по сезону 1016.3 951.9 +1.3 +7.9
штиль 0 н/о н/о +0.8 +0.3 96 -1 -1 по сезону 1018.0 953.3
ЮВ 1 н/о н/о +0.5 0.0 96 -2 -2 по сезону 1018.8 954.0
Ю 1 н/о н/о +0.4 0.0 97 -2 -2 по сезону 1019.0 954.2
З 1 н/о н/о +0.4 0.0 97 -2 -2 по сезону 1019.5 954.6
штиль 0 н/о н/о +1.3 +0.9 97 0 0 по сезону 1019.2 954.6
штиль 0 н/о н/о +1.1 +0.7 97 -0 -0 по сезону 1019.5 954.8
ЮЗ 1 н/о н/о +1.5 +1.2 98 -1 -1 по сезону 1019.5 954.9
В 1 н/о н/о +1.9 +1.6 98 -0 -0 по сезону 1019.3 954.8
В 1 н/о н/о +2.0 +1.6 97 0 0 по сезону 1019.2 954.7
штиль 0 н/о н/о +2.1 +1.7 97 +1 +1 по сезону 1019.0 954.6
СЗ 1 н/о н/о +1.9 +1.5 97 -0 -0 по сезону 1019.3 954.8 -0.4 +2.4
штиль 0 н/о н/о +2.4 +2.0 97 +1 +1 по сезону 1019.3 954.9
СЗ 1 н/о н/о +2.7 +2.1 96 +1 +1 по сезону 1019.2 954.9
СЗ 1 н/о н/о +3.1 +2.0 92 +1 +1 по сезону 1019.3 955.1
З 1 н/о н/о +4.5 +3.2 91 +3 +3 по сезону 1018.5 954.6
СЗ 2 н/о н/о +4.6 +2.5 86 +2 +2 по сезону 1017.4 953.6
СЗ 1 10 км 8/5 300 м
[St As trans]
+6.0 +3.1 82 +5 +6 тепло 1016.3 952.9
СЗ 1 н/о н/о +5.8 +1.7 75 +5 +5 тепло 1015.7 952.3
СЗ 1 н/о н/о +6.2 +2.3 76 +5 +5 тепло 1014.9 951.6 0.0
штиль 0 н/о н/о +5.8 +2.0 77 +5 +5 тепло 1014.1 950.8 0.0
ЮЗ 1 н/о н/о +5.3 +2.6 83 +4 +4 по сезону 1013.9 950.5
ЮЗ 1 н/о в посл. час осадки н/о +4.8 +3.4 91 +3 +3 по сезону 1014.2 950.7 0.0
ЮЗ 1 10 км слаб. дождь 10/9 300 м
[Frnb As trans]
+4.6 +3.4 92 +3 +3 по сезону 1013.9 950.4 +1.9 +6.6 0.0
З 1 н/о н/о +4.6 +3.6 93 +3 +3 по сезону 1013.7 950.2 0.0
штиль 0 н/о н/о +4.6 +3.5 93 +3 +3 по сезону 1013.6 950.1
штиль 0 н/о в посл. час осадки н/о +4.5 +3.8 95 +3 +3 по сезону 1013.5 950.0 0.0
штиль 0 н/о н/о +4.4 +3.7 95 +3 +3 по сезону 1013.5 949.9
штиль 0 н/о н/о +4.6 +3.9 95 +3 +3 по сезону 1013.2 949.7 0.0
штиль 0 н/о в посл. час осадки н/о +4.5 +3.9 96 +3 +3 по сезону 1012.5 949.0 0.0
З 1 н/о осадки н/о +4.4 +3.9 97 +3 +3 по сезону 1012.1 948.6 0.0
штиль 0 н/о осадки н/о +4.4 +3.8 96 +3 +3 по сезону 1011.1 947.7 0.3
ЮВ 1 н/о осадки н/о +4.4 +3.9 97 +3 +3 по сезону 1010.9 947.5 0.3
С 1 н/о в посл. час осадки н/о +4.4 +4.0 97 +3 +3 по сезону 1010.7 947.3 0.2
СЗ 1 н/о осадки н/о +4.2 +3.8 97 +3 +3 по сезону 1010.5 947.1 0.4
штиль 0 2000 м слаб. дождь {морось} 10/10 50 м
[Frnb]
+4.2 +3.9 98 +3 +3 по сезону 1009.9 946.5 +4.1 +4.7 2
СЗ 1 н/о осадки н/о +4.1 +3.8 98 +2 +2 по сезону 1010.2 946.8 1
штиль 0 н/о в посл. час осадки н/о +4.3 +4.0 98 +3 +3 по сезону 1009.7 946.4 0.7
З 1 н/о {осадки} н/о +4.7 +4.3 97 +3 +3 по сезону 1009.1 945.9 2
В 2 н/о н/о +6.0 +5.1 94 +3 +3 по сезону 1007.5 944.7 0.0
В 2 н/о осадки н/о +6.1 +5.3 95 +4 +4 по сезону 1007.3 944.5 0.3
В 4 4000 м дождь 10/9 100 м
[Frnb As trans]
+5.8 +5.3 97 +2 +2 по сезону 1006.5 943.7 5
СВ 3 н/о осадки н/о +5.7 +5.2 97 +2 +2 по сезону 1005.8 943.0 1
В 3 н/о осадки н/о +6.0 +4.7 91 +3 +3 по сезону 1005.4 942.7 2
В 2 н/о осадки н/о +5.6 +5.2 97 +3 +3 по сезону 1004.5 941.8 5
В 3 н/о осадки н/о +5.4 +5.1 98 +2 +2 по сезону 1004.3 941.6 3
В 2 н/о осадки н/о +5.3 +5.0 98 +3 +3 по сезону 1004.4 941.6 2
В 2 2000 м дождь 10/10 50 м
[Frnb]
+5.4 +5.3 99 +3 +3 по сезону 1004.1 941.4 +4.0 +6.2 17
СВ 2 н/о осадки н/о +5.5 +5.3 99 +3 +3 по сезону 1004.1 941.4 2
В 1 н/о в посл. час осадки н/о +5.7 +5.4 98 +4 +4 по сезону 1003.6 941.0 0.5
В 2 н/о в посл. час осадки н/о +5.8 +5.4 97 +3 +3 по сезону 1002.8 940.2 2
В 3 н/о ливневой дождь н/о +6.1 +5.3 95 +3 +3 по сезону 1001.7 939.3 0.6
В 3 н/о осадки н/о +6.1 +5.6 97 +3 +3 по сезону 1001.4 939.0 2
Ю 1 н/о ливневой дождь н/о +6.0 +5.5 97 +5 +5 тепло 1002.0 939.5 5
СЗ 1 н/о осадки н/о +4.9 +4.4 97 +3 +3 по сезону 1001.4 938.7 0.9
ЮВ 1 н/о ливневой дождь {осадки} н/о +4.9 +4.5 97 +3 +3 по сезону 1001.1 938.4 0.5
ЮЗ 1 н/о ливневой дождь н/о +4.9 +4.7 99 +3 +3 по сезону 999.9 937.3 3
В 5 н/о осадки н/о +6.0 +5.4 96 +1 +1 по сезону 998.9 936.6 2
СВ 2 н/о осадки н/о +5.9 +5.3 96 +3 +3 по сезону 998.8 936.5 1
ЮВ 4 10 км дождь 10/8 300 м
[Frnb As trans]
+6.1 +5.1 93 +2 +2 по сезону 998.7 936.5 +4.8 +6.2 12
В 6 н/о осадки н/о +6.1 +5.0 93 +1 +1 по сезону 998.9 936.6 1
ЮВ 4 н/о осадки н/о +6.2 +5.2 93 +2 +2 по сезону 998.5 936.3 3
С 1 н/о {осадки} н/о +5.9 +5.5 97 +5 +5 тепло 999.1 936.8 9
СЗ 2 н/о н/о +4.7 +4.2 97 +2 +2 по сезону 1000.3 937.6 7
СЗ 1 н/о осадки н/о +5.0 +4.6 97 +4 +4 по сезону 1000.3 937.7 5
З 2 3000 м дождь 10/9 50 м
[Frnb As op]
+5.3 +4.9 97 +3 +3 по сезону 1000.5 938.0 23
З 4 н/о осадки н/о +4.3 +3.2 93 -0 -0 по сезону 1001.2 938.4 3
З 5 н/о осадки н/о +3.1 +2.0 92 -2 -2 по сезону 1002.7 939.5 1
З 4 н/о осадки н/о +3.3 +1.9 91 -1 -1 по сезону 1003.7 940.5 6
З 4 н/о осадки н/о +3.4 +1.8 89 -1 -1 по сезону 1004.7 941.5 0.8
З 3 н/о осадки н/о +3.1 +1.7 91 -1 -1 по сезону 1005.8 942.4 0.4
З 2 4000 м дождь 10/9 100 м
[Frnb As op]
+2.9 +1.7 92 -0 -0 по сезону 1007.1 943.6 +2.9 +6.2 30
СЗ 3 н/о в посл. час осадки н/о +2.7 +2.2 97 -2 -2 по сезону 1008.3 944.7 0.2
СЗ 1 н/о в посл. час осадки н/о +2.5 +2.0 96 +1 +1 по сезону 1009.2 945.5 0.2
С 1 н/о {ливн. осадки} н/о +2.3 +1.8 96 0 0 по сезону 1010.0 946.2 0.4
штиль 0 н/о {ливн. осадки} н/о +2.1 +1.7 97 +1 +1 по сезону 1011.4 947.4 0.4
ЮВ 1 н/о н/о +1.5 +1.1 97 -1 -1 по сезону 1011.9 947.8
З 1 н/о н/о +2.0 +1.5 96 0 0 по сезону 1012.0 948.0
СВ 1 н/о н/о +1.8 +1.4 97 -0 -0 по сезону 1011.9 947.8
С 1 н/о н/о +1.6 +1.0 96 -0 -0 по сезону 1012.3 948.2
СВ 1 н/о н/о +1.6 +1.1 96 -0 -0 по сезону 1012.6 948.4
С 1 2000 м дымка 10/10 50 м
[St]
+1.6 +1.2 97 -0 -0 по сезону 1013.3 949.1 +1.5 +3.2 0.4
штиль 0 н/о н/о +1.7 +1.0 95 0 0 по сезону 1013.8 949.6
штиль 0 н/о н/о +2.1 +1.2 94 +1 +1 по сезону 1013.8 949.7
СЗ 1 н/о н/о +2.4 +1.6 94 +1 +1 по сезону 1014.0 949.9
СЗ 1 н/о н/о +2.6 +1.5 92 +1 +1 по сезону 1014.0 950.0
СЗ 2 н/о н/о +2.9 +1.6 91 -0 -0 по сезону 1013.8 949.9
С 2 н/о н/о +2.9 +1.6 91 -0 -0 по сезону 1013.8 949.9
СЗ 1 н/о н/о +3.1 +1.7 91 +1 +1 по сезону 1013.5 949.6
С 1 н/о н/о +3.6 +2.0 89 +2 +2 по сезону 1013.2 949.5
С 1 н/о н/о +3.2 +1.8 91 +2 +2 по сезону 1013.0 949.2
штиль 0 н/о н/о +3.0 +1.9 92 +2 +2 по сезону 1012.8 949.0
Местоположение метеостанции Файстриц-об-Блайбург (Австрия): широта 46.57 долгота 14.77 высота над уровнем моря 527 м.
В архиве по умолчанию представлена погода в Файстриц-об-Блайбурге за последнюю неделю. Архивные данные за месяц целиком и за предыдущие месяцы, начиная с января 2011 года, Вы можете получить, выбрав интересующий диапазон дат из раскрывающегося списка и нажав кнопку "Найти!".
*Определитесь, кто Вы:
Внимание! Время в таблицах - всемирное. Для получения местного времени необходимо прибавить поправку, которая равна 1 ч.
Смотрите также архив погоды в соседних городах и на ближайших метеорологических станциях:
Партнеры нашего сайта:      
Пояснения к столбцам:
  • Ветер - указаны скорость ветра в м/с - средняя за 10 мин, порывы в срок и между сроками (в фигурных скобках) и направление, откуда дует ветер: С - северный,
  • СВ - северо-восточный, В - восточный, ЮВ - юго-восточный, Ю - южный, ЮЗ - юго-западный, З - западный, СЗ - северо-западный.
  • Видимость - горизонтальная дальность видимости в метрах или километрах. При видимости от 1 до 10 км при отсутствии осадков обычно наблюдается дымка, при ухудшении видимости до 1 км и менее - туман. В сухую погоду видимость может ухудшаться дымом, пылью или мглою.
  • Явления - указаны атмосферные явления, наблюдавшиеся в срок или в последний час перед сроком; фигурными скобками обозначены явления, наблюдавшиеся между сроками (за 1-3 часа до срока); квадратными скобками обозначены град или гололедные отложения с указанием их диаметра в мм.
  • Облачность - указаны через наклонную черту общая и нижняя облачность в баллах и высота нижней границы облаков в метрах; квадратными скобками обозначены формы облаков: Ci - перистые, Cs - перисто-слоистые, Cc - перисто-кучевые, Ac - высококучевые, As - высокослоистые, Sc - слоисто-кучевые, Ns - слоисто-дождевые, Cu - кучевые, Cb - кучево-дождевые. Подробнее классификацию облаков см. в Атласе облаков (PDF).
  • T - Температура воздуха - температура, измеренная на высоте 2 м над землей.
  • Td - Температура точки росы - температура, при понижении до которой содержащийся в воздухе водяной пар достигнет насыщения.
  • f - Относительная влажность воздуха - влажноcть воздуха, измеренная на высоте 2 м над землей.
  • Te - Эффективная температура - температура, которую ощущает одетый по сезону человек в тени. Характеристика душности погоды. При расчете учитывается влияние влажности воздуха и скорости ветра на теплоощущения человека.
  • Tes - Эффективная температура на солнце - температура, которую ощущает человек, с поправкой на солнечный нагрев. Характеристика знойности погоды. Зависит от высоты солнца над горизонтом, облачности и скорости ветра. Ночью, в пасмурную погоду, а также при ветре 12 м/с и более поправка равна нулю.
  • P - Атмосферное давление - приведенное к уровню моря атмосферное давление.
  • Po - Атмосферное давление - измеренное на уровне метеостанции атмосферное давление.
  • Tmin - Минимальная температура - минимум температуры воздуха на высоте 2 м над землей.
  • Tmax - Максимальная температура - максимум температуры воздуха на высоте 2 м над землей.
  • R - Количество осадков - Количество выпавших осадков за период времени, мм. При наведении курсора мыши на число - период времени, за который выпало указанное количество осадков.
  • R24 - Количество осадков - Количество выпавших осадков за 24 часа, мм.
  • S - Снежный покров - Высота снежного покрова, см. При наведении курсора мыши на число - состояние снежного покрова и степень покрытия местности в баллах.